K4HG-2 Weather Reports


Display with metric or nautical units.
time (UTC)temp
F
wind
direction
speed
MPH
gust
MPH
rain 1hr
in
rain 24hr
in
rain mn
in
humidity
%
barometer
mb
20181215022815 78 168 0.0 0.0 0.00 0.00 0.00 86 1016.0
20181215022616 78 168 0.0 0.0 0.00 0.00 0.00 86 1016.1
20181215022416 78 168 0.0 0.0 0.00 0.00 0.00 86 1016.1
20181215022216 78 168 0.0 0.0 0.00 0.00 0.00 86 1016.2
20181215021816 78 168 0.0 0.0 0.00 0.00 0.00 86 1016.2
20181215021615 78 168 0.0 0.0 0.00 0.00 0.00 86 1016.2
20181215020815 78 168 0.0 1.0 0.00 0.00 0.00 87 1016.2
20181215020616 78 168 0.0 1.0 0.00 0.00 0.00 87 1016.3
20181215020415 78 168 0.0 0.0 0.00 0.00 0.00 88 1016.3
20181215020215 78 189 0.0 0.0 0.00 0.00 0.00 88 1016.3
20181215020016 78 225 0.0 0.0 0.00 0.00 0.00 88 1016.3
20181215015815 78 225 0.0 1.0 0.00 0.00 0.00 89 1016.2
20181215015615 78 225 0.0 1.0 0.00 0.00 0.00 89 1016.2
20181215015215 78 225 0.0 4.0 0.00 0.00 0.00 90 1016.1
20181215014815 78 162 0.0 1.0 0.00 0.00 0.00 90 1016.0
20181215014416 78 303 0.0 1.0 0.00 0.00 0.00 91 1016.0
20181215014215 79 303 0.0 3.0 0.00 0.00 0.00 91 1016.0
20181215014016 79 152 0.0 3.0 0.00 0.00 0.00 91 1016.1
20181215013815 78 152 0.0 5.0 0.00 0.00 0.00 91 1016.1
20181215013616 79 152 0.0 5.0 0.00 0.00 0.00 91 1016.1
20181215013415 79 179 2.0 5.0 0.00 0.00 0.00 91 1016.0
20181215013216 78 155 1.0 4.0 0.00 0.00 0.00 91 1016.1
20181215013015 79 166 1.0 4.0 0.00 0.00 0.00 91 1016.0
20181215012615 79 151 1.0 4.0 0.00 0.00 0.00 91 1016.0
20181215012215 78 159 2.0 0.0 0.00 0.00 0.00 91 1016.0
20181215012016 78 159 0.0 0.0 0.00 0.00 0.00 90 1016.0
20181215011815 78 159 0.0 5.0 0.00 0.00 0.00 90 1016.0
20181215011615 78 159 0.0 5.0 0.00 0.00 0.00 90 1016.0
20181215011416 79 159 0.0 5.0 0.00 0.00 0.00 90 1016.0
20181215011215 78 187 1.0 4.0 0.00 0.00 0.00 90 1016.0
20181215011015 79 159 2.0 4.0 0.00 0.00 0.00 90 1016.1
20181215010816 78 152 1.0 1.0 0.00 0.00 0.00 90 1016.0
20181215010616 79 128 0.0 1.0 0.00 0.00 0.00 90 1016.1
20181215010415 79 128 0.0 3.0 0.00 0.00 0.00 90 1016.1
20181215010215 79 128 0.0 3.0 0.00 0.00 0.00 89 1016.1
20181215010015 79 128 0.0 3.0 0.00 0.00 0.00 89 1016.1
20181215005815 78 117 1.0 3.0 0.00 0.00 0.00 89 1016.1
20181215005616 79 144 0.0 3.0 0.00 0.00 0.00 89 1016.0
20181215005415 78 195 2.0 0.0 0.00 0.00 0.00 89 1016.0
20181215005215 79 117 0.0 0.0 0.00 0.00 0.00 89 1016.0
20181215005015 78 135 0.0 0.0 0.00 0.00 0.00 89 1016.0
20181215004815 79 135 0.0 0.0 0.00 0.00 0.00 89 1016.0
20181215004616 79 135 0.0 0.0 0.00 0.00 0.00 89 1015.9
20181215004415 78 135 0.0 0.0 0.00 0.00 0.00 89 1015.9
20181215004216 79 135 0.0 4.0 0.00 0.00 0.00 89 1015.9
20181215004015 78 135 0.0 4.0 0.00 0.00 0.00 89 1015.8
20181215003816 78 135 0.0 5.0 0.00 0.00 0.00 89 1015.7
20181215003615 78 161 2.0 5.0 0.00 0.00 0.00 89 1015.7
20181215003416 78 103 0.0 5.0 0.00 0.00 0.00 89 1015.7
20181215003217 78 152 2.0 5.0 0.00 0.00 0.00 89 1015.7
20181215003016 78 114 2.0 5.0 0.00 0.00 0.00 89 1015.6
20181215002816 78 157 1.0 7.0 0.00 0.00 0.00 89 1015.6
20181215002615 78 154 1.0 7.0 0.00 0.00 0.00 89 1015.5
20181215002016 78 161 0.0 4.0 0.00 0.00 0.00 89 1015.6
20181215001815 78 152 2.0 1.0 0.00 0.00 0.00 89 1015.6
20181215001616 78 133 0.0 1.0 0.00 0.00 0.00 89 1015.6
20181215001416 78 155 0.0 1.0 0.00 0.00 0.00 89 1015.5
20181215001215 78 158 0.0 5.0 0.00 0.00 0.00 89 1015.5
20181215001016 78 158 0.0 5.0 0.00 0.00 0.00 90 1015.5
20181215000816 78 154 0.0 4.0 0.00 0.00 0.00 90 1015.5
20181215000615 78 126 0.0 4.0 0.00 0.00 0.00 90 1015.5
20181215000416 78 128 0.0 4.0 0.00 0.00 0.00 90 1015.4
20181215000216 78 142 0.0 5.0 0.00 0.00 0.00 90 1015.4
20181215000015 78 142 0.0 5.0 0.00 0.00 0.00 90 1015.3
20181214235816 78 164 1.0 5.0 0.00 0.00 0.00 90 1015.2
20181214235615 78 126 1.0 5.0 0.00 0.00 0.00 91 1015.3
20181214235416 78 197 0.0 5.0 0.00 0.00 0.00 91 1015.3
20181214235215 78 197 0.0 5.0 0.00 0.00 0.00 91 1015.3
20181214235016 78 179 3.0 5.0 0.00 0.00 0.00 91 1015.2
20181214234815 78 164 0.0 6.0 0.00 0.00 0.00 91 1015.3
20181214234616 78 164 0.0 6.0 0.00 0.00 0.00 91 1015.2
20181214234415 78 142 4.0 7.0 0.00 0.00 0.00 91 1015.3
20181214234216 78 180 0.0 7.0 0.00 0.00 0.00 91 1015.2
20181214234016 78 79 0.0 7.0 0.00 0.00 0.00 91 1015.2
20181214233816 79 148 0.0 7.0 0.00 0.00 0.00 91 1015.2
20181214233615 78 147 4.0 7.0 0.00 0.00 0.00 91 1015.1
20181214233215 79 161 3.0 7.0 0.00 0.00 0.00 91 1015.1
20181214233016 79 155 5.0 7.0 0.00 0.00 0.00 91 1015.1
20181214232615 78 150 4.0 8.0 0.00 0.00 0.00 91 1015.1
20181214232216 78 154 3.0 7.0 0.00 0.00 0.00 91 1015.1
20181214232015 78 161 4.0 7.0 0.00 0.00 0.00 91 1015.0
20181214231816 78 162 1.0 10.0 0.00 0.00 0.00 91 1015.0
20181214231615 78 127 1.0 10.0 0.00 0.00 0.00 91 1014.9
20181214231416 78 144 1.0 10.0 0.00 0.00 0.00 91 1014.9
20181214231215 79 141 7.0 8.0 0.00 0.00 0.00 91 1014.8
20181214231016 79 119 0.0 8.0 0.00 0.00 0.00 91 1014.8
20181214230815 78 182 3.0 9.0 0.00 0.00 0.00 91 1014.7
20181214230616 78 140 2.0 9.0 0.00 0.00 0.00 91 1014.7
20181214230415 79 147 8.0 9.0 0.00 0.00 0.00 91 1014.7
20181214230215 79 165 3.0 9.0 0.00 0.00 0.00 91 1014.7
20181214225815 78 196 3.0 8.0 0.00 0.00 0.00 91 1014.7
20181214225616 79 168 0.0 8.0 0.00 0.00 0.00 91 1014.7
20181214225415 79 154 2.0 9.0 0.00 0.00 0.00 91 1014.7
20181214225216 79 158 6.0 9.0 0.00 0.00 0.00 90 1014.7
20181214225015 79 161 2.0 9.0 0.00 0.00 0.00 90 1014.7
20181214224816 78 154 6.0 10.0 0.00 0.00 0.00 90 1014.8
20181214224616 79 121 3.0 10.0 0.00 0.00 0.00 90 1014.7
20181214224416 79 175 4.0 9.0 0.00 0.00 0.00 90 1014.7
20181214224215 79 161 5.0 9.0 0.00 0.00 0.00 90 1014.6
20181214224016 79 164 5.0 9.0 0.00 0.00 0.00 90 1014.7
20181214223815 79 166 2.0 8.0 0.00 0.00 0.00 90 1014.8
20181214223616 79 159 6.0 8.0 0.00 0.00 0.00 89 1014.7
20181214223415 79 151 3.0 8.0 0.00 0.00 0.00 89 1014.7
20181214222815 79 190 2.0 10.0 0.00 0.00 0.00 89 1014.6
20181214222616 79 159 8.0 10.0 0.00 0.00 0.00 89 1014.6
20181214222415 79 147 6.0 10.0 0.00 0.00 0.00 89 1014.6
20181214222215 79 238 0.0 6.0 0.00 0.00 0.00 89 1014.6
20181214222020 79 238 0.0 6.0 0.00 0.00 0.00 89 1014.7
20181214221815 79 238 0.0 9.0 0.00 0.00 0.00 89 1014.6
20181214221616 79 138 0.0 9.0 0.00 0.00 0.00 89 1014.7
20181214221216 79 141 0.0 9.0 0.00 0.00 0.00 88 1014.7
20181214221016 79 179 4.0 9.0 0.00 0.00 0.00 88 1014.6
20181214220816 79 155 6.0 6.0 0.00 0.00 0.00 88 1014.6
20181214220615 79 173 8.0 6.0 0.00 0.00 0.00 88 1014.6
20181214220416 79 140 5.0 6.0 0.00 0.00 0.00 88 1014.6
20181214220216 80 164 3.0 0.0 0.00 0.00 0.00 88 1014.6
20181214220016 79 135 0.0 0.0 0.00 0.00 0.00 88 1014.6
20181214215815 80 135 0.0 6.0 0.00 0.00 0.00 88 1014.6
20181214215616 79 135 0.0 6.0 0.00 0.00 0.00 88 1014.6
20181214215415 79 135 0.0 8.0 0.00 0.00 0.00 88 1014.7
20181214215216 80 203 1.0 8.0 0.00 0.00 0.00 87 1014.8
20181214215015 80 154 2.0 8.0 0.00 0.00 0.00 87 1014.7
20181214214816 80 158 7.0 6.0 0.00 0.00 0.00 87 1014.8
20181214214416 80 185 1.0 6.0 0.00 0.00 0.00 86 1014.8
20181214214216 80 138 2.0 6.0 0.00 0.00 0.00 86 1014.8
20181214214015 80 189 0.0 6.0 0.00 0.00 0.00 86 1014.8
20181214213815 80 152 5.0 5.0 0.00 0.00 0.00 86 1014.8
20181214213616 80 211 1.0 5.0 0.00 0.00 0.00 86 1014.8
20181214213215 80 102 0.0 8.0 0.00 0.00 0.00 86 1014.7
20181214213016 80 155 2.0 8.0 0.00 0.00 0.00 86 1014.7
20181214212815 80 148 0.0 7.0 0.00 0.00 0.00 86 1014.8
20181214212615 80 148 0.0 7.0 0.00 0.00 0.00 86 1014.8
20181214212416 80 165 0.0 7.0 0.00 0.00 0.00 86 1014.8
20181214212215 80 161 4.0 11.0 0.00 0.00 0.00 86 1014.7
20181214212016 80 135 0.0 11.0 0.00 0.00 0.00 86 1014.7
20181214211815 80 135 0.0 6.0 0.00 0.00 0.00 86 1014.7
20181214211415 80 105 0.0 6.0 0.00 0.00 0.00 86 1014.8
20181214211216 80 175 0.0 2.0 0.00 0.00 0.00 86 1014.8
20181214211015 80 95 0.0 2.0 0.00 0.00 0.00 86 1014.8
20181214210815 80 131 1.0 7.0 0.00 0.00 0.00 86 1014.8
20181214210616 80 150 0.0 7.0 0.00 0.00 0.00 86 1014.8
20181214210415 80 150 0.0 7.0 0.00 0.00 0.00 86 1014.8
20181214210216 80 161 3.0 7.0 0.00 0.00 0.00 86 1014.8
20181214210015 80 164 5.0 7.0 0.00 0.00 0.00 86 1014.8
20181214205816 80 152 2.0 0.0 0.00 0.00 0.00 86 1014.9
20181214205616 80 124 0.0 0.0 0.00 0.00 0.00 85 1014.9
20181214205416 80 124 0.0 6.0 0.00 0.00 0.00 85 1014.9
20181214205216 80 124 0.0 6.0 0.00 0.00 0.00 85 1014.9
20181214205015 80 124 0.0 6.0 0.00 0.00 0.00 85 1014.9
20181214204816 80 151 0.0 8.0 0.00 0.00 0.00 85 1014.9
20181214204016 80 144 6.0 6.0 0.00 0.00 0.00 85 1014.9
20181214203616 80 117 0.0 8.0 0.00 0.00 0.00 84 1014.9
20181214203416 80 117 0.0 3.0 0.00 0.00 0.00 84 1014.8
20181214203215 81 117 0.0 3.0 0.00 0.00 0.00 84 1014.8
20181214203016 81 179 1.0 3.0 0.00 0.00 0.00 84 1014.9
20181214202815 80 151 0.0 4.0 0.00 0.00 0.00 84 1014.9
20181214202616 80 151 0.0 4.0 0.00 0.00 0.00 84 1014.9
20181214202415 80 213 0.0 4.0 0.00 0.00 0.00 84 1014.9
20181214202216 81 213 0.0 3.0 0.00 0.00 0.00 84 1014.9
20181214202015 80 180 0.0 3.0 0.00 0.00 0.00 84 1014.9
20181214201815 81 50 0.0 3.0 0.00 0.00 0.00 84 1014.9
20181214201616 80 110 0.0 3.0 0.00 0.00 0.00 84 1014.9
20181214201415 80 145 0.0 3.0 0.00 0.00 0.00 84 1014.9
20181214201216 80 145 0.0 6.0 0.00 0.00 0.00 84 1014.9
20181214201016 80 145 0.0 6.0 0.00 0.00 0.00 84 1014.9
20181214200816 81 154 0.0 8.0 0.00 0.00 0.00 83 1014.9
20181214200615 80 157 2.0 8.0 0.00 0.00 0.00 83 1014.9
20181214200416 81 148 0.0 8.0 0.00 0.00 0.00 83 1014.9
20181214200215 81 193 0.0 7.0 0.00 0.00 0.00 82 1014.9
20181214200016 81 140 0.0 7.0 0.00 0.00 0.00 82 1014.9
20181214195816 81 140 0.0 6.0 0.00 0.00 0.00 82 1014.9
20181214195616 81 200 1.0 6.0 0.00 0.00 0.00 82 1014.9
20181214195416 81 148 0.0 6.0 0.00 0.00 0.00 82 1014.9
20181214195216 81 158 2.0 7.0 0.00 0.00 0.00 81 1014.9
20181214195017 81 172 3.0 7.0 0.00 0.00 0.00 81 1015.0
20181214194816 81 155 4.0 8.0 0.00 0.00 0.00 81 1015.0
20181214194615 81 157 0.0 8.0 0.00 0.00 0.00 82 1015.0
20181214194416 81 166 7.0 8.0 0.00 0.00 0.00 82 1014.9
20181214194215 81 148 5.0 7.0 0.00 0.00 0.00 81 1014.9
20181214194015 81 168 3.0 7.0 0.00 0.00 0.00 82 1015.0
20181214193816 81 196 0.0 9.0 0.00 0.00 0.00 82 1015.0
20181214193616 81 131 1.0 9.0 0.00 0.00 0.00 82 1015.0
20181214193415 81 168 1.0 8.0 0.00 0.00 0.00 82 1015.0
20181214193015 81 190 3.0 8.0 0.00 0.00 0.00 82 1015.0
20181214192815 81 165 6.0 10.0 0.00 0.00 0.00 82 1015.0
20181214192616 81 155 6.0 10.0 0.00 0.00 0.00 81 1015.0
20181214192415 81 158 5.0 10.0 0.00 0.00 0.00 81 1015.0
20181214192216 81 220 2.0 9.0 0.00 0.00 0.00 80 1015.0
20181214192015 81 148 8.0 9.0 0.00 0.00 0.00 81 1015.0
20181214191816 81 141 0.0 8.0 0.00 0.00 0.00 81 1015.0
20181214191615 81 171 0.0 8.0 0.00 0.00 0.00 81 1015.0
20181214191416 82 88 2.0 8.0 0.00 0.00 0.00 81 1015.0
20181214191215 81 186 3.0 9.0 0.00 0.00 0.00 80 1015.0
20181214191016 81 173 2.0 9.0 0.00 0.00 0.00 81 1015.0
20181214190815 81 180 1.0 9.0 0.00 0.00 0.00 80 1015.0
20181214190616 81 71 0.0 9.0 0.00 0.00 0.00 80 1015.0
20181214190416 82 120 4.0 9.0 0.00 0.00 0.00 80 1015.1
20181214190216 81 155 0.0 8.0 0.00 0.00 0.00 81 1015.1
20181214190016 81 164 2.0 8.0 0.00 0.00 0.00 81 1015.1
20181214185816 81 133 4.0 6.0 0.00 0.00 0.00 80 1015.1
20181214185615 82 128 3.0 6.0 0.00 0.00 0.00 81 1015.1
20181214185415 82 320 0.0 6.0 0.00 0.00 0.00 81 1015.1
20181214185215 81 164 0.0 6.0 0.00 0.00 0.00 81 1015.2
20181214184616 81 140 2.0 9.0 0.00 0.00 0.00 81 1015.3
20181214184215 81 150 1.0 9.0 0.00 0.00 0.00 81 1015.4
20181214184016 81 121 1.0 9.0 0.00 0.00 0.00 81 1015.4
20181214183815 81 150 5.0 5.0 0.00 0.00 0.00 81 1015.5
20181214183415 81 137 4.0 7.0 0.00 0.00 0.00 81 1015.5
20181214183215 81 130 0.0 7.0 0.00 0.00 0.00 81 1015.5
20181214183015 81 130 0.0 7.0 0.00 0.00 0.00 82 1015.6
20181214182815 81 130 0.0 8.0 0.00 0.00 0.00 81 1015.6
20181214182615 81 130 2.0 8.0 0.00 0.00 0.00 81 1015.6
20181214182416 81 178 6.0 8.0 0.00 0.00 0.00 82 1015.6
20181214182215 81 242 0.0 10.0 0.00 0.00 0.00 82 1015.7
20181214182016 81 173 0.0 10.0 0.00 0.00 0.00 82 1015.6
20181214181616 81 154 6.0 8.0 0.00 0.00 0.00 81 1015.7
20181214181415 81 152 0.0 8.0 0.00 0.00 0.00 82 1015.7
20181214180816 81 187 0.0 9.0 0.00 0.00 0.00 82 1015.8
20181214180615 81 166 3.0 9.0 0.00 0.00 0.00 81 1015.8
20181214180416 81 117 6.0 9.0 0.00 0.00 0.00 81 1015.8
20181214180215 81 187 0.0 8.0 0.00 0.00 0.00 81 1015.8
20181214180016 81 51 0.0 8.0 0.00 0.00 0.00 81 1015.9
20181214175815 81 245 5.0 9.0 0.00 0.00 0.00 81 1015.9
20181214175615 81 116 1.0 9.0 0.00 0.00 0.00 81 1016.0
20181214175415 81 157 0.0 7.0 0.00 0.00 0.00 81 1016.0
20181214175215 81 158 6.0 7.0 0.00 0.00 0.00 80 1016.0
20181214175015 81 120 0.0 7.0 0.00 0.00 0.00 80 1016.0
20181214174816 81 197 3.0 7.0 0.00 0.00 0.00 80 1016.1
20181214174416 81 135 0.0 8.0 0.00 0.00 0.00 80 1016.1
20181214174215 81 157 4.0 8.0 0.00 0.00 0.00 80 1016.2
20181214173815 81 209 2.0 8.0 0.00 0.00 0.00 79 1016.4
20181214173616 81 123 0.0 8.0 0.00 0.00 0.00 80 1016.4
20181214173415 81 268 4.0 8.0 0.00 0.00 0.00 80 1016.4
20181214173016 81 173 7.0 8.0 0.00 0.00 0.00 80 1016.5
20181214172815 81 221 3.0 8.0 0.00 0.00 0.00 80 1016.5
20181214172616 81 119 0.0 8.0 0.00 0.00 0.00 80 1016.5
20181214172415 81 203 0.0 8.0 0.00 0.00 0.00 80 1016.5
20181214172216 81 72 2.0 7.0 0.00 0.00 0.00 80 1016.5
20181214172015 81 135 0.0 7.0 0.00 0.00 0.00 80 1016.6
20181214171816 81 120 0.0 6.0 0.00 0.00 0.00 81 1016.6
20181214171615 81 150 2.0 6.0 0.00 0.00 0.00 81 1016.6
20181214171416 81 283 2.0 6.0 0.00 0.00 0.00 81 1016.7
20181214171215 81 134 2.0 7.0 0.00 0.00 0.00 81 1016.7
20181214171016 81 128 2.0 7.0 0.00 0.00 0.00 81 1016.8
20181214170815 80 161 3.0 9.0 0.00 0.00 0.00 81 1016.8
20181214170615 80 171 5.0 9.0 0.00 0.00 0.00 81 1016.8
20181214170416 80 144 1.0 9.0 0.00 0.00 0.00 81 1016.8
20181214170215 81 134 3.0 9.0 0.00 0.00 0.00 81 1016.7
20181214170016 81 133 0.0 9.0 0.00 0.00 0.00 81 1016.8
20181214165816 80 117 3.0 10.0 0.00 0.00 0.00 80 1016.9
20181214165615 81 175 4.0 10.0 0.00 0.00 0.00 80 1016.9
20181214165416 81 97 1.0 10.0 0.00 0.00 0.00 80 1017.0
20181214165216 80 130 0.0 8.0 0.00 0.00 0.00 80 1017.0
20181214165016 81 130 0.0 8.0 0.00 0.00 0.00 80 1017.1
20181214164816 81 161 3.0 9.0 0.00 0.00 0.00 80 1017.2
20181214164615 80 178 0.0 9.0 0.00 0.00 0.00 80 1017.2
20181214164416 81 145 5.0 9.0 0.00 0.00 0.00 80 1017.2
20181214164016 81 145 2.0 9.0 0.00 0.00 0.00 80 1017.2
20181214163815 81 97 2.0 9.0 0.00 0.00 0.00 80 1017.2
20181214163616 80 203 3.0 9.0 0.00 0.00 0.00 80 1017.3
20181214163415 81 159 3.0 9.0 0.00 0.00 0.00 80 1017.4
20181214163216 81 168 1.0 9.0 0.00 0.00 0.00 80 1017.4
20181214163015 81 124 2.0 9.0 0.00 0.00 0.00 80 1017.3
20181214162815 80 164 2.0 0.0 0.00 0.00 0.00 80 1017.3
20181214162616 81 180 4.0 0.0 0.00 0.00 0.00 80 1017.3
20181214162415 81 140 0.0 0.0 0.00 0.00 0.00 80 1017.4
20181214162216 81 140 0.0 0.0 0.00 0.00 0.00 80 1017.4
20181214162015 81 140 0.0 0.0 0.00 0.00 0.00 80 1017.4
20181214161816 81 140 0.0 9.0 0.00 0.00 0.00 80 1017.5
20181214161616 81 140 0.0 9.0 0.00 0.00 0.00 80 1017.5
20181214161415 81 140 0.0 9.0 0.00 0.00 0.00 80 1017.5
20181214161015 81 155 2.0 8.0 0.00 0.00 0.00 80 1017.5
20181214160816 81 155 2.0 9.0 0.00 0.00 0.00 80 1017.5
20181214160616 80 263 5.0 9.0 0.00 0.00 0.00 80 1017.4
20181214160415 80 159 4.0 8.0 0.00 0.00 0.00 80 1017.4
20181214160215 80 227 1.0 8.0 0.00 0.00 0.00 80 1017.4
20181214160016 80 176 1.0 8.0 0.00 0.00 0.00 81 1017.5
20181214155816 80 150 5.0 8.0 0.00 0.00 0.00 81 1017.5
20181214155615 80 90 2.0 8.0 0.00 0.00 0.00 81 1017.5
20181214155416 80 117 2.0 8.0 0.00 0.00 0.00 81 1017.5
20181214155016 80 178 1.0 9.0 0.00 0.00 0.00 81 1017.6
20181214154815 80 154 1.0 9.0 0.00 0.00 0.00 81 1017.6
20181214154616 80 147 0.0 9.0 0.00 0.00 0.00 81 1017.6
20181214154415 80 124 1.0 9.0 0.00 0.00 0.00 81 1017.6
20181214154216 80 147 3.0 9.0 0.00 0.00 0.00 81 1017.6
20181214154015 80 173 3.0 9.0 0.00 0.00 0.00 81 1017.7
20181214153415 80 164 0.0 9.0 0.00 0.00 0.00 82 1017.8
20181214153215 80 183 0.0 9.0 0.00 0.00 0.00 82 1017.7
20181214153016 80 200 4.0 9.0 0.00 0.00 0.00 82 1017.8
20181214152815 80 109 1.0 8.0 0.00 0.00 0.00 82 1017.8
20181214152616 80 150 0.0 8.0 0.00 0.00 0.00 82 1017.9
20181214152415 80 114 3.0 7.0 0.00 0.00 0.00 82 1017.8
20181214152216 80 126 3.0 7.0 0.00 0.00 0.00 82 1017.8
20181214152015 80 157 0.0 7.0 0.00 0.00 0.00 82 1017.8
20181214151816 80 97 2.0 8.0 0.00 0.00 0.00 82 1017.9
20181214151615 80 317 0.0 8.0 0.00 0.00 0.00 82 1017.9
20181214151416 80 148 1.0 8.0 0.00 0.00 0.00 82 1017.9
20181214151215 80 197 3.0 10.0 0.00 0.00 0.00 82 1017.9
20181214151016 80 116 2.0 10.0 0.00 0.00 0.00 82 1017.9
20181214150815 80 159 7.0 9.0 0.00 0.00 0.00 82 1017.9
20181214150616 80 173 0.0 9.0 0.00 0.00 0.00 82 1017.9
20181214150216 80 138 2.0 8.0 0.00 0.00 0.00 81 1017.9
20181214150015 80 116 3.0 8.0 0.00 0.00 0.00 81 1018.0
20181214145816 80 154 0.0 12.0 0.00 0.00 0.00 80 1017.9
20181214145615 80 148 5.0 12.0 0.00 0.00 0.00 80 1017.9
20181214145416 80 311 1.0 12.0 0.00 0.00 0.00 81 1017.9
20181214145016 80 2 5.0 9.0 0.00 0.00 0.00 82 1017.8
20181214144815 80 142 4.0 8.0 0.00 0.00 0.00 82 1017.8
20181214144616 80 310 2.0 8.0 0.00 0.00 0.00 81 1017.8
20181214144415 80 157 6.0 8.0 0.00 0.00 0.00 81 1017.8
20181214144216 80 144 6.0 8.0 0.00 0.00 0.00 81 1017.8
20181214144015 80 36 2.0 8.0 0.00 0.00 0.00 81 1017.8
20181214143816 80 155 4.0 9.0 0.00 0.00 0.00 81 1017.8
20181214143615 79 97 1.0 9.0 0.00 0.00 0.00 81 1017.8
20181214143416 80 128 0.0 8.0 0.00 0.00 0.00 81 1017.8
20181214143216 80 123 7.0 8.0 0.00 0.00 0.00 81 1017.8
20181214143015 79 142 0.0 8.0 0.00 0.00 0.00 82 1017.8
20181214142615 79 231 0.0 7.0 0.00 0.00 0.00 83 1017.8
20181214142416 79 161 2.0 8.0 0.00 0.00 0.00 83 1017.7
20181214142215 79 196 4.0 8.0 0.00 0.00 0.00 83 1017.7
20181214142016 79 109 1.0 8.0 0.00 0.00 0.00 83 1017.7
20181214141815 79 178 5.0 8.0 0.00 0.00 0.00 83 1017.8
20181214141616 79 162 4.0 8.0 0.00 0.00 0.00 83 1017.8
20181214141416 79 152 5.0 8.0 0.00 0.00 0.00 83 1017.7
20181214141215 79 180 5.0 11.0 0.00 0.00 0.00 83 1017.8
20181214141015 79 196 1.0 11.0 0.00 0.00 0.00 84 1017.7
20181214140816 79 159 2.0 7.0 0.00 0.00 0.00 84 1017.7
20181214140616 79 211 4.0 7.0 0.00 0.00 0.00 84 1017.7
20181214140216 79 123 0.0 8.0 0.00 0.00 0.00 85 1017.6
20181214140015 79 145 5.0 8.0 0.00 0.00 0.00 85 1017.7
20181214135815 79 166 3.0 11.0 0.00 0.00 0.00 85 1017.6
20181214135616 79 169 3.0 11.0 0.00 0.00 0.00 85 1017.6
20181214135216 79 117 2.0 8.0 0.00 0.00 0.00 85 1017.6
20181214135015 79 134 6.0 8.0 0.00 0.00 0.00 85 1017.6
20181214134615 78 120 3.0 11.0 0.00 0.00 0.00 84 1017.5
20181214134416 78 141 3.0 9.0 0.00 0.00 0.00 84 1017.5
20181214134016 79 148 7.0 9.0 0.00 0.00 0.00 85 1017.5
20181214133815 79 159 0.0 8.0 0.00 0.00 0.00 86 1017.4
20181214133616 78 179 2.0 8.0 0.00 0.00 0.00 86 1017.4
20181214133415 78 164 5.0 12.0 0.00 0.00 0.00 86 1017.4
20181214133216 78 148 3.0 12.0 0.00 0.00 0.00 86 1017.4
20181214133015 78 144 1.0 12.0 0.00 0.00 0.00 86 1017.4
20181214132816 78 216 3.0 7.0 0.00 0.00 0.00 86 1017.4
20181214132616 78 126 2.0 7.0 0.00 0.00 0.00 86 1017.4
20181214132416 78 154 2.0 8.0 0.00 0.00 0.00 86 1017.4
20181214132215 78 196 4.0 8.0 0.00 0.00 0.00 86 1017.4
20181214132016 78 137 4.0 8.0 0.00 0.00 0.00 86 1017.5
20181214131815 78 168 1.0 9.0 0.00 0.00 0.00 86 1017.4
20181214131615 78 165 1.0 9.0 0.00 0.00 0.00 87 1017.4
20181214131416 78 175 2.0 9.0 0.00 0.00 0.00 87 1017.4
20181214131215 78 182 4.0 7.0 0.00 0.00 0.00 87 1017.4
20181214131016 78 158 3.0 7.0 0.00 0.00 0.00 88 1017.5
20181214130815 77 109 2.0 8.0 0.00 0.00 0.00 88 1017.5
20181214130615 78 155 3.0 8.0 0.00 0.00 0.00 88 1017.4
20181214130416 77 135 5.0 8.0 0.00 0.00 0.00 88 1017.5
20181214130216 77 127 0.0 10.0 0.00 0.00 0.00 87 1017.4
20181214130016 77 169 2.0 10.0 0.00 0.00 0.00 88 1017.4
20181214125616 77 130 3.0 9.0 0.00 0.00 0.00 88 1017.4
20181214125415 77 140 6.0 9.0 0.00 0.00 0.00 88 1017.3
20181214125216 77 137 2.0 9.0 0.00 0.00 0.00 88 1017.3
20181214124815 77 169 6.0 9.0 0.00 0.00 0.00 88 1017.3
20181214124616 77 173 2.0 9.0 0.00 0.00 0.00 88 1017.3
20181214124415 77 138 1.0 9.0 0.00 0.00 0.00 87 1017.3
20181214124216 77 137 1.0 9.0 0.00 0.00 0.00 87 1017.3
20181214124016 77 155 4.0 9.0 0.00 0.00 0.00 86 1017.3
20181214123815 77 120 4.0 13.0 0.00 0.00 0.00 86 1017.3
20181214123615 77 223 1.0 13.0 0.00 0.00 0.00 86 1017.3
20181214123415 77 152 7.0 11.0 0.00 0.00 0.00 87 1017.3
20181214123216 77 155 9.0 11.0 0.00 0.00 0.00 88 1017.2
20181214123015 77 148 7.0 11.0 0.00 0.00 0.00 88 1017.2
20181214122815 77 164 6.0 10.0 0.00 0.00 0.00 88 1017.2
20181214122616 77 150 3.0 10.0 0.00 0.00 0.00 88 1017.1
20181214122416 76 147 6.0 11.0 0.00 0.00 0.00 87 1017.1
20181214122215 77 165 3.0 11.0 0.00 0.00 0.00 86 1017.1
20181214122016 76 134 6.0 11.0 0.00 0.00 0.00 85 1017.1
20181214121815 77 193 3.0 12.0 0.00 0.00 0.00 85 1017.1
20181214121616 76 176 5.0 12.0 0.00 0.00 0.00 86 1017.0
20181214121216 77 128 4.0 13.0 0.00 0.00 0.00 88 1016.9
20181214121016 77 141 1.0 13.0 0.00 0.00 0.00 89 1016.9
20181214120815 77 328 3.0 10.0 0.00 0.00 0.00 89 1016.9
20181214120616 77 157 3.0 10.0 0.00 0.00 0.00 89 1016.9
20181214120216 77 166 4.0 10.0 0.00 0.00 0.00 89 1016.9
20181214120015 77 127 2.0 10.0 0.00 0.00 0.00 89 1016.9
20181214115815 77 159 7.0 9.0 0.00 0.00 0.00 89 1016.8
20181214115616 77 141 4.0 9.0 0.00 0.00 0.00 89 1016.8
20181214115416 77 161 3.0 9.0 0.00 0.00 0.00 89 1016.8
20181214115216 77 176 3.0 9.0 0.00 0.00 0.00 89 1016.7
20181214115016 77 171 2.0 9.0 0.00 0.00 0.00 88 1016.7
20181214114815 77 169 2.0 9.0 0.00 0.00 0.00 88 1016.7
20181214114415 77 157 6.0 9.0 0.00 0.00 0.00 88 1016.7
20181214114215 77 168 3.0 9.0 0.00 0.00 0.00 88 1016.6
20181214114016 77 141 8.0 9.0 0.00 0.00 0.00 88 1016.6
20181214113815 77 178 5.0 10.0 0.00 0.00 0.00 88 1016.6
20181214113616 77 185 3.0 10.0 0.00 0.00 0.00 88 1016.6
20181214113415 77 60 2.0 10.0 0.00 0.00 0.00 88 1016.6
20181214113216 77 190 7.0 10.0 0.00 0.00 0.00 88 1016.7
20181214113015 77 150 7.0 10.0 0.00 0.00 0.00 88 1016.6
20181214112816 77 186 6.0 8.0 0.00 0.00 0.00 88 1016.6
20181214112615 77 187 6.0 8.0 0.00 0.00 0.00 87 1016.6
20181214112416 77 196 5.0 7.0 0.00 0.00 0.00 87 1016.6
20181214112215 77 154 4.0 7.0 0.00 0.00 0.00 87 1016.5
20181214111616 77 169 4.0 7.0 0.00 0.00 0.00 87 1016.5
20181214111416 77 176 3.0 9.0 0.00 0.00 0.00 87 1016.5
20181214111215 77 158 4.0 9.0 0.00 0.00 0.00 87 1016.4
20181214111016 77 157 1.0 9.0 0.00 0.00 0.00 87 1016.4
20181214110615 77 158 4.0 8.0 0.00 0.00 0.00 86 1016.3
20181214110415 77 169 3.0 9.0 0.00 0.00 0.00 86 1016.3
20181214110215 77 142 6.0 9.0 0.00 0.00 0.00 86 1016.2
20181214110015 77 47 1.0 9.0 0.00 0.00 0.00 86 1016.3
20181214105616 77 175 3.0 9.0 0.00 0.00 0.00 86 1016.2
20181214105416 77 168 2.0 9.0 0.00 0.00 0.00 86 1016.2
20181214105215 77 141 4.0 9.0 0.00 0.00 0.00 86 1016.2
20181214105016 77 134 4.0 9.0 0.00 0.00 0.00 86 1016.2
20181214104815 77 209 0.0 9.0 0.00 0.00 0.00 86 1016.2
20181214104216 77 157 3.0 11.0 0.00 0.00 0.00 85 1016.3
20181214104016 77 137 4.0 11.0 0.00 0.00 0.00 85 1016.3
20181214103816 77 157 5.0 10.0 0.00 0.00 0.00 85 1016.3
20181214103615 77 123 4.0 10.0 0.00 0.00 0.00 85 1016.2
20181214103416 77 196 1.0 10.0 0.00 0.00 0.00 85 1016.2
20181214103216 77 113 5.0 10.0 0.00 0.00 0.00 85 1016.1
20181214103015 77 165 2.0 10.0 0.00 0.00 0.00 85 1016.1
20181214102816 76 154 5.0 10.0 0.00 0.00 0.00 84 1016.1
20181214102615 77 155 5.0 10.0 0.00 0.00 0.00 84 1016.1
20181214102416 77 166 6.0 11.0 0.00 0.00 0.00 84 1016.1
20181214102215 77 161 8.0 11.0 0.00 0.00 0.00 84 1016.0
20181214101616 77 138 4.0 11.0 0.00 0.00 0.00 83 1015.9
20181214101416 77 176 4.0 11.0 0.00 0.00 0.00 83 1015.9
20181214101215 77 128 0.0 11.0 0.00 0.00 0.00 82 1016.0
20181214101016 77 124 4.0 11.0 0.00 0.00 0.00 82 1016.1
20181214100815 77 127 5.0 10.0 0.00 0.00 0.00 81 1016.1
20181214100616 77 151 2.0 10.0 0.00 0.00 0.00 81 1016.1
20181214100415 77 162 6.0 11.0 0.00 0.00 0.00 81 1016.1
20181214100215 77 9 2.0 11.0 0.00 0.00 0.00 81 1016.1
20181214100016 77 259 3.0 11.0 0.00 0.00 0.00 80 1016.0
20181214095815 77 142 5.0 10.0 0.00 0.00 0.00 80 1016.0
20181214095616 77 126 3.0 10.0 0.00 0.00 0.00 80 1016.0
20181214095415 77 185 2.0 9.0 0.00 0.00 0.00 80 1015.9
20181214095216 77 135 4.0 9.0 0.00 0.00 0.00 79 1016.0
20181214095015 77 178 5.0 9.0 0.00 0.00 0.00 79 1016.1
20181214094815 77 150 0.0 10.0 0.00 0.00 0.00 79 1016.1
20181214094616 77 165 5.0 10.0 0.00 0.00 0.00 79 1016.0
20181214094416 77 131 8.0 13.0 0.00 0.00 0.00 79 1016.1
20181214094216 77 171 3.0 13.0 0.00 0.00 0.00 79 1016.1
20181214094015 77 158 7.0 13.0 0.00 0.00 0.00 78 1016.1
20181214093615 77 247 4.0 10.0 0.00 0.00 0.00 78 1016.1
20181214093416 77 182 7.0 10.0 0.00 0.00 0.00 78 1016.2
20181214093216 77 138 2.0 10.0 0.00 0.00 0.00 78 1016.2
20181214093015 77 216 2.0 10.0 0.00 0.00 0.00 78 1016.2
20181214092816 77 157 1.0 9.0 0.00 0.00 0.00 78 1016.2
20181214092616 77 165 3.0 9.0 0.00 0.00 0.00 77 1016.2
20181214092416 77 155 4.0 10.0 0.00 0.00 0.00 78 1016.2
20181214092216 77 138 4.0 10.0 0.00 0.00 0.00 78 1016.2
20181214092015 77 152 3.0 10.0 0.00 0.00 0.00 77 1016.1
20181214091816 77 171 4.0 9.0 0.00 0.00 0.00 77 1016.2
20181214091615 77 121 1.0 9.0 0.00 0.00 0.00 77 1016.2
20181214091416 77 179 3.0 9.0 0.00 0.00 0.00 77 1016.2
20181214091016 77 168 6.0 9.0 0.00 0.00 0.00 77 1016.1
20181214090815 77 152 4.0 9.0 0.00 0.00 0.00 77 1016.1
20181214090616 77 171 5.0 9.0 0.00 0.00 0.00 78 1016.1
20181214090415 77 173 2.0 9.0 0.00 0.00 0.00 78 1016.0
20181214090215 77 165 0.0 9.0 0.00 0.00 0.00 78 1016.0
20181214085815 77 154 8.0 10.0 0.00 0.00 0.00 77 1016.0
20181214085415 77 137 4.0 10.0 0.00 0.00 0.00 77 1016.1
20181214085216 77 147 2.0 10.0 0.00 0.00 0.00 77 1016.1
20181214085015 76 210 2.0 10.0 0.00 0.00 0.00 77 1016.1
20181214084815 77 152 8.0 9.0 0.00 0.00 0.00 77 1016.0
20181214084616 77 175 4.0 9.0 0.00 0.00 0.00 77 1016.0
20181214084415 76 141 3.0 9.0 0.00 0.00 0.00 76 1016.0
20181214084216 76 133 6.0 9.0 0.00 0.00 0.00 76 1016.0
20181214084015 77 210 1.0 9.0 0.00 0.00 0.00 76 1016.0
20181214083816 76 265 2.0 10.0 0.00 0.00 0.00 76 1016.0
20181214083216 77 137 1.0 10.0 0.00 0.00 0.00 75 1016.1
20181214083015 77 180 0.0 10.0 0.00 0.00 0.00 76 1016.1
20181214082815 76 175 4.0 9.0 0.00 0.00 0.00 75 1016.1
20181214082616 76 52 2.0 9.0 0.00 0.00 0.00 75 1016.1
20181214082415 77 116 3.0 9.0 0.00 0.00 0.00 75 1016.1
20181214082216 76 116 5.0 9.0 0.00 0.00 0.00 75 1016.1
20181214081816 77 161 3.0 9.0 0.00 0.00 0.00 75 1016.2
20181214081416 76 157 4.0 8.0 0.00 0.00 0.00 74 1016.2
20181214081215 76 100 4.0 8.0 0.00 0.00 0.00 74 1016.2
20181214081016 76 141 2.0 8.0 0.00 0.00 0.00 74 1016.1
20181214080815 77 230 4.0 7.0 0.00 0.00 0.00 74 1016.0
20181214080415 77 169 1.0 9.0 0.00 0.00 0.00 75 1016.1
20181214080215 76 141 2.0 9.0 0.00 0.00 0.00 75 1016.2
20181214080015 77 158 2.0 9.0 0.00 0.00 0.00 75 1016.3
20181214075815 77 165 0.0 7.0 0.00 0.00 0.00 74 1016.3
20181214075415 77 151 7.0 7.0 0.00 0.00 0.00 73 1016.4
20181214075216 77 179 1.0 11.0 0.00 0.00 0.00 73 1016.4
20181214075016 77 169 3.0 11.0 0.00 0.00 0.00 73 1016.5
20181214074816 77 134 7.0 9.0 0.00 0.00 0.00 73 1016.5
20181214074416 77 130 2.0 9.0 0.00 0.00 0.00 74 1016.4
20181214074016 77 180 3.0 9.0 0.00 0.00 0.00 74 1016.3
20181214073815 77 161 7.0 13.0 0.00 0.00 0.00 74 1016.3
20181214073615 77 216 3.0 13.0 0.00 0.00 0.00 74 1016.2
20181214073415 77 180 3.0 12.0 0.00 0.00 0.00 73 1016.3
20181214073215 77 173 3.0 12.0 0.00 0.00 0.00 73 1016.3
20181214073016 77 189 6.0 12.0 0.00 0.00 0.00 72 1016.3
20181214072815 77 155 4.0 10.0 0.00 0.00 0.00 72 1016.3
20181214072615 77 147 6.0 10.0 0.00 0.00 0.00 72 1016.3
20181214072415 77 138 1.0 13.0 0.00 0.00 0.00 72 1016.3
20181214072215 77 161 3.0 13.0 0.00 0.00 0.00 72 1016.3
20181214072015 77 138 2.0 13.0 0.00 0.00 0.00 72 1016.3
20181214071815 77 145 5.0 11.0 0.00 0.00 0.00 73 1016.3
20181214071616 77 197 2.0 11.0 0.00 0.00 0.00 73 1016.2
20181214071415 77 155 8.0 11.0 0.00 0.00 0.00 72 1016.4
20181214071216 77 214 3.0 11.0 0.00 0.00 0.00 72 1016.3
20181214071016 77 155 5.0 11.0 0.00 0.00 0.00 72 1016.4
20181214070816 77 148 4.0 12.0 0.00 0.00 0.00 72 1016.4
20181214070615 77 155 5.0 12.0 0.00 0.00 0.00 72 1016.5
20181214070215 77 26 0.0 11.0 0.00 0.00 0.00 72 1016.4
20181214070016 77 187 4.0 11.0 0.00 0.00 0.00 73 1016.4
20181214065816 77 159 5.0 9.0 0.00 0.00 0.00 72 1016.4
20181214065615 77 157 8.0 9.0 0.00 0.00 0.00 73 1016.4
20181214065416 77 152 6.0 9.0 0.00 0.00 0.00 73 1016.5
20181214064815 77 150 3.0 10.0 0.00 0.00 0.00 74 1016.4
20181214064616 77 179 3.0 10.0 0.00 0.00 0.00 74 1016.4
20181214064416 77 161 3.0 12.0 0.00 0.00 0.00 74 1016.4
20181214064216 77 138 5.0 12.0 0.00 0.00 0.00 73 1016.5
20181214064016 77 144 3.0 12.0 0.00 0.00 0.00 73 1016.6
20181214063815 77 251 2.0 12.0 0.00 0.00 0.00 73 1016.7
20181214063416 77 138 3.0 11.0 0.00 0.00 0.00 74 1016.7
20181214063216 77 123 5.0 11.0 0.00 0.00 0.00 74 1016.7
20181214063016 77 151 3.0 11.0 0.00 0.00 0.00 75 1016.7
20181214062815 77 161 5.0 9.0 0.00 0.00 0.00 75 1016.8
20181214062616 76 190 2.0 9.0 0.00 0.00 0.00 75 1016.7
20181214062416 77 154 4.0 9.0 0.00 0.00 0.00 75 1016.7
20181214062016 77 161 4.0 9.0 0.00 0.00 0.00 74 1016.7
20181214061815 77 269 2.0 9.0 0.00 0.00 0.00 74 1016.7
20181214061615 77 147 3.0 9.0 0.00 0.00 0.00 74 1016.7
20181214061415 77 157 4.0 8.0 0.00 0.00 0.00 74 1016.7
20181214061015 77 152 5.0 8.0 0.00 0.00 0.00 74 1016.7
20181214060816 77 157 5.0 9.0 0.00 0.00 0.00 74 1016.7
20181214060615 77 145 3.0 9.0 0.00 0.00 0.00 74 1016.6
20181214060415 77 145 3.0 8.0 0.00 0.00 0.00 75 1016.7
20181214060015 77 151 4.0 8.0 0.00 0.00 0.00 75 1016.7
20181214055816 77 178 1.0 11.0 0.00 0.00 0.00 74 1016.7
20181214055416 76 140 5.0 9.0 0.00 0.00 0.00 74 1016.7
20181214055215 77 61 0.0 9.0 0.00 0.00 0.00 74 1016.7
20181214055016 77 179 7.0 9.0 0.00 0.00 0.00 74 1016.7
20181214054616 77 141 4.0 11.0 0.00 0.00 0.00 75 1016.8
20181214054415 77 165 2.0 13.0 0.00 0.00 0.00 75 1016.7
20181214054215 76 164 3.0 13.0 0.00 0.00 0.00 75 1016.6
20181214054016 77 134 2.0 13.0 0.00 0.00 0.00 74 1016.6
20181214053815 76 175 0.0 11.0 0.00 0.00 0.00 74 1016.6
20181214053616 77 161 7.0 11.0 0.00 0.00 0.00 75 1016.6
20181214053415 77 105 4.0 9.0 0.00 0.00 0.00 75 1016.6
20181214053216 77 144 6.0 9.0 0.00 0.00 0.00 75 1016.6
20181214053015 76 169 2.0 9.0 0.00 0.00 0.00 75 1016.6
20181214052816 77 232 4.0 12.0 0.00 0.00 0.00 75 1016.6
20181214052615 77 97 3.0 12.0 0.00 0.00 0.00 75 1016.6
20181214052415 76 114 1.0 10.0 0.00 0.00 0.00 75 1016.6
20181214052216 76 135 6.0 10.0 0.00 0.00 0.00 75 1016.7
20181214052016 76 161 2.0 10.0 0.00 0.00 0.00 75 1016.6
20181214051415 76 128 2.0 9.0 0.00 0.00 0.00 75 1016.7
20181214051215 76 159 0.0 9.0 0.00 0.00 0.00 75 1016.7
20181214051016 76 199 5.0 9.0 0.00 0.00 0.00 75 1016.8
20181214050815 76 157 4.0 11.0 0.00 0.00 0.00 76 1016.8
20181214050616 76 150 0.0 11.0 0.00 0.00 0.00 76 1016.8
20181214050415 76 183 0.0 12.0 0.00 0.00 0.00 76 1016.8
20181214050015 76 190 4.0 12.0 0.00 0.00 0.00 75 1016.8
20181214045816 76 145 5.0 13.0 0.00 0.00 0.02 75 1016.9
20181214045615 76 161 3.0 13.0 0.00 0.00 0.02 75 1016.7
20181214045416 76 93 3.0 13.0 0.00 0.00 0.02 75 1016.7
20181214045016 76 211 4.0 13.0 0.00 0.00 0.02 76 1016.8
20181214044616 76 126 2.0 12.0 0.00 0.00 0.02 77 1016.8
20181214044415 76 165 2.0 13.0 0.00 0.00 0.02 77 1016.8
20181214044215 76 166 7.0 13.0 0.00 0.00 0.02 77 1016.8
20181214043816 76 171 1.0 11.0 0.00 0.00 0.02 77 1016.9
20181214043615 76 230 4.0 11.0 0.00 0.00 0.02 77 1016.9
20181214043415 76 123 4.0 10.0 0.00 0.00 0.02 77 1016.9
20181214043015 76 180 3.0 10.0 0.00 0.00 0.02 79 1016.9
20181214042816 76 147 3.0 10.0 0.00 0.00 0.02 79 1017.0
20181214042615 76 195 5.0 10.0 0.00 0.00 0.02 78 1017.0
20181214042416 76 175 6.0 11.0 0.00 0.00 0.02 78 1017.0
20181214042215 76 147 7.0 11.0 0.00 0.00 0.02 77 1017.0
20181214042016 76 155 5.0 11.0 0.00 0.00 0.02 77 1016.9
20181214041815 76 180 4.0 10.0 0.00 0.00 0.02 77 1016.9
20181214041416 76 176 4.0 10.0 0.00 0.00 0.02 78 1017.0
20181214041216 76 159 6.0 10.0 0.00 0.00 0.02 78 1017.1
20181214040820 76 144 3.0 9.0 0.00 0.00 0.02 78 1017.1
20181214040616 76 182 1.0 9.0 0.00 0.00 0.02 78 1017.0
20181214040415 76 147 0.0 10.0 0.00 0.00 0.02 77 1017.0
20181214040215 76 154 6.0 10.0 0.00 0.00 0.02 77 1017.0
20181214035616 76 202 4.0 9.0 0.00 0.00 0.02 77 1017.1
20181214035415 76 144 8.0 9.0 0.00 0.00 0.02 78 1017.1
20181214035216 76 128 6.0 9.0 0.00 0.00 0.02 78 1017.1
20181214035016 76 124 1.0 9.0 0.00 0.00 0.02 78 1017.1
20181214034815 76 161 5.0 11.0 0.00 0.00 0.02 78 1017.1
20181214034615 76 150 3.0 11.0 0.00 0.00 0.02 78 1017.1
20181214034415 76 169 11.0 9.0 0.00 0.00 0.02 78 1017.1
20181214034216 76 161 4.0 9.0 0.00 0.00 0.02 79 1017.2
20181214034016 76 192 4.0 9.0 0.00 0.00 0.02 79 1017.2
20181214033816 76 151 5.0 9.0 0.00 0.00 0.02 78 1017.2
20181214033615 76 133 3.0 9.0 0.00 0.00 0.02 78 1017.2
20181214033415 76 213 3.0 9.0 0.00 0.00 0.02 78 1017.2
20181214033215 76 172 3.0 9.0 0.00 0.00 0.02 78 1017.2
20181214033016 76 142 4.0 9.0 0.00 0.00 0.02 78 1017.2
20181214032815 75 157 6.0 9.0 0.00 0.00 0.02 78 1017.2
20181214032415 76 151 3.0 13.0 0.00 0.00 0.02 79 1017.3
20181214032216 75 147 4.0 13.0 0.00 0.00 0.02 79 1017.3
20181214032015 75 131 3.0 13.0 0.00 0.00 0.02 79 1017.3
20181214031816 75 168 7.0 9.0 0.00 0.00 0.02 79 1017.2
20181214031615 75 162 3.0 9.0 0.00 0.00 0.02 79 1017.3
20181214031416 75 157 5.0 10.0 0.00 0.00 0.02 79 1017.3
20181214031215 75 162 5.0 10.0 0.00 0.00 0.02 80 1017.3
20181214031015 75 159 5.0 10.0 0.00 0.00 0.02 80 1017.2
20181214030815 75 176 4.0 11.0 0.00 0.00 0.02 80 1017.3
20181214030616 75 128 4.0 11.0 0.00 0.00 0.02 80 1017.3
20181214030415 75 148 5.0 9.0 0.00 0.00 0.02 80 1017.3
20181214030215 75 144 3.0 9.0 0.00 0.00 0.02 80 1017.3
20181214030015 75 148 3.0 9.0 0.00 0.00 0.02 80 1017.3
20181214025815 75 165 5.0 11.0 0.00 0.00 0.02 81 1017.3
20181214025415 75 158 4.0 9.0 0.00 0.00 0.02 81 1017.4
20181214025216 75 155 3.0 9.0 0.00 0.00 0.02 81 1017.4
20181214025016 75 161 3.0 9.0 0.00 0.00 0.02 81 1017.5
20181214024816 75 134 5.0 7.0 0.00 0.00 0.02 81 1017.6
20181214024615 75 197 2.0 7.0 0.00 0.00 0.02 80 1017.5
20181214024416 75 168 5.0 8.0 0.00 0.00 0.02 80 1017.6
20181214024215 75 145 0.0 8.0 0.00 0.00 0.02 80 1017.7
20181214024015 75 150 0.0 8.0 0.00 0.00 0.02 80 1017.7
20181214023816 75 168 0.0 8.0 0.00 0.00 0.02 80 1017.8
20181214023615 75 148 3.0 8.0 0.00 0.00 0.02 80 1017.8
20181214023416 75 142 6.0 8.0 0.00 0.00 0.02 80 1017.8
20181214023216 75 180 3.0 8.0 0.00 0.00 0.02 80 1017.8